Location: Alpha Ridge Park
(39.3209°N, 76.9128°W)
Time: 11:45:45
(UTC-04:00)

S-56A Canister/Altair - Pass Details

Date: 22 May 2019
Orbit: 633 x 2499 km, 38.9° (Epoch: 18 June)

Event Time Altitude Azimuth Distance (km) Brightness Sun altitude
Rises 08:50:19 0° 285° (WNW) 4,924 11.2 33.0°
Reaches altitude 10° 08:53:26 10° 279° (W) 4,167 10.9 33.6°
Maximum altitude 09:04:13 43° 213° (SSW) 2,902 10.6 35.7°
Drops below altitude 10° 09:17:42 10° 149° (SSE) 5,149 12.3 38.3°
Sets 09:22:04 0° 143° (SE) 6,158 12.6 39.1°
